This is the latest recevied weather packets stored in our database for station/object F1AGU-13. If no packets are shown the sender has not sent any weather packets the latest 10 day(s).
| Time | Temp. | Humidity | Pressure | Rain* | Wind** | Luminosity | Snow |
|---|---|---|---|---|---|---|---|
| 1778052316 | 7.22° C | 98% | 1008.2 hPa | 3.56 mm | - | - | - |
| 1778051716 | 6.67° C | 98% | 1008.1 hPa | 3.81 mm | - | - | - |
| 1778051116 | 6.67° C | 98% | 1008 hPa | 3.81 mm | - | - | - |
| 1778050516 | 6.67° C | 98% | 1007.8 hPa | 3.81 mm | - | - | - |
| 1778049916 | 6.67° C | 98% | 1008.1 hPa | 3.3 mm | - | - | - |
| 1778049316 | 6.67° C | 98% | 1008 hPa | 2.54 mm | - | - | - |
| 1778048715 | 6.67° C | 98% | 1007.7 hPa | 1.78 mm | - | - | - |
| 1778048116 | 6.67° C | 98% | 1007.8 hPa | 1.52 mm | - | - | - |
| 1778047516 | 6.67° C | 98% | 1007.9 hPa | 1.02 mm | - | - | - |
| 1778046915 | 6.67° C | 98% | 1007.9 hPa | 0.51 mm | - | - | - |
| 1778046315 | 6.67° C | 98% | 1008 hPa | 0.25 mm | - | - | - |
| 1778045717 | 6.67° C | 98% | 1007.9 hPa | 0.51 mm | - | - | - |
| 1778045117 | 6.67° C | 98% | 1007.8 hPa | 0.51 mm | - | - | - |
| 1778044517 | 6.67° C | 98% | 1008.1 hPa | 0.76 mm | - | - | - |
| 1778043917 | 6.67° C | 98% | 1007.8 hPa | 0.76 mm | - | - | - |
| 1778043317 | 6.67° C | 98% | 1008 hPa | 0.76 mm | - | - | - |
| 1778042717 | 6.67° C | 98% | 1008 hPa | 0.76 mm | - | - | - |
| 1778042117 | 6.11° C | 98% | 1007.7 hPa | 0.51 mm | - | - | - |
| 1778041517 | 6.11° C | 98% | 1007.7 hPa | 0.25 mm | - | - | - |
| 1778040917 | 6.11° C | 98% | 1007.9 hPa | 0 mm | - | - | - |
| 1778040317 | 6.11° C | 98% | 1007.9 hPa | 0 mm | - | - | - |
| 1778039717 | 6.11° C | 98% | 1007.8 hPa | 0 mm | - | - | - |
| 1778039117 | 6.11° C | 98% | 1007.9 hPa | 0 mm | - | - | - |
| 1778038517 | 6.11° C | 98% | 1007.8 hPa | 0.25 mm | - | - | - |
| 1778037917 | 6.11° C | 98% | 1007.9 hPa | 0.25 mm | - | - | - |
* Rain latest hour (hover to see other rain measurements)
** Current wind speed in m/s (hover to see current wind gust speed)